This demonstration page uses our WeatherBlox Daily Observations layout. Learn more.

Left ArrowRight Arrow

40.92945, -100.16068

Hourly Observations for November 28, 2018

Temp ( °F °C ) Dew Point ( °F °C ) Humidity (%) Winds ( mph kmh ) Pressure ( in mb ) Visibility ( mi km ) Precip ( " mm )
12:15 am 00:15 Cloudy with Mist and Fog 30 -1.3 28 -2 95 95 SSE 10 17 29.94 1014 4 6.43736 0 0
12:35 am 00:35 Cloudy with Mist and Fog 30 -1.3 28 -2 95 95 S 12 19 29.88 1012 4 6.43736 0 0
12:55 am 00:55 Cloudy with Mist and Fog 30 -1.3 28 -2 95 95 S 8 13 29.88 1012 5 8.0467 0 0
1:15 am 01:15 Cloudy with Mist and Fog 30 -1.2 28 -2 94 94 S 10 17 29.85 1011 5 8.0467 0 0
1:35 am 01:35 Cloudy with Mist and Fog 30 -1.2 28 -2 94 94 S 12 19 29.85 1011 5 8.0467 0 0
1:55 am 01:55 Cloudy with Mist and Fog 30 -1.2 28 -2 94 94 S 9 15 29.85 1011 5 8.0467 0 0
2:15 am 02:15 Cloudy with Mist and Fog 30 -1.2 28 -2.1 94 94 S 8 13 29.83 1010 5 8.0467 0 0
2:35 am 02:35 Cloudy 30 -1.3 28 -2.3 93 93 S 10 17 29.83 1010 7 11.26538 0 0
2:55 am 02:55 Cloudy 30 -1.2 28 -2.3 92 92 S 7 11 29.83 1010 7 11.26538 0 0
3:15 am 03:15 Mostly Cloudy 30 -1.3 28 -2.5 92 92 S 6 9 29.83 1010 7 11.26538 0 0
3:35 am 03:35 Partly Cloudy 30 -1.3 28 -2.5 92 92 S 6 9 29.8 1009 7 11.26538 0 0
3:55 am 03:55 Clear 29 -1.7 27 -3 91 91 S 6 9 29.8 1009 7 11.26538 0 0
4:15 am 04:15 Clear 29 -1.7 27 -3 91 91 S 6 9 29.8 1009 7 11.26538 0 0
4:35 am 04:35 Clear 29 -1.8 26 -3.1 91 91 S 6 9 29.8 1009 7 11.26538 0 0
4:55 am 04:55 Clear 28 -2 26 -3.2 92 92 S 5 7 29.8 1009 7 11.26538 0 0
5:15 am 05:15 Clear 29 -1.9 26 -3.1 92 92 S 5 7 29.8 1009 7 11.26538 0 0
5:35 am 05:35 Clear 29 -1.7 27 -3 91 91 Calm 29.8 1009 7 11.26538 0 0
5:55 am 05:55 Clear 28 -2 26 -3.2 92 92 S 3 6 29.8 1009 7 11.26538 0 0
6:15 am 06:15 Clear 28 -2 27 -3 93 93 SSW 3 6 29.8 1009 7 11.26538 0 0
6:35 am 06:35 Clear 28 -2.2 26 -3.5 91 91 Calm 29.83 1010 7 11.26538 0 0
6:55 am 06:55 Clear 27 -3 25 -4 93 93 Calm 29.83 1010 7 11.26538 0 0
7:15 am 07:15 Clear with Mist and Fog 27 -2.6 26 -3.5 94 94 Calm 29.83 1010 5 8.0467 0 0
7:35 am 07:35 Clear 28 -2.4 26 -3.4 93 93 Calm 29.83 1010 7 11.26538 0 0
7:55 am 07:55 Sunny with Mist and Fog 29 -1.8 27 -2.7 94 94 Calm 29.8 1009 5 8.0467 0 0
8:15 am 08:15 Sunny with Mist and Fog 29 -1.5 28 -2.5 93 93 Calm 29.8 1009 5 8.0467 0 0
8:35 am 08:35 Partly Cloudy with Mist and Fog 30 -1.2 28 -2.2 93 93 NNE 3 6 29.8 1009 5 8.0467 0 0
8:55 am 08:55 Mostly Cloudy with Mist and Fog 31 -0.7 29 -1.8 92 92 Calm 29.77 1008 5 8.0467 0 0
9:15 am 09:15 Cloudy 32 -0.1 29 -1.5 90 90 Calm 29.8 1009 7 11.26538 0 0
9:35 am 09:35 Cloudy 33 0.3 30 -1.1 90 90 Calm 29.8 1009 7 11.26538 0 0
9:55 am 09:55 Mostly Cloudy 34 1.3 31 -0.6 87 87 Calm 29.74 1007 10 16.0934 0 0
10:15 am 10:15 Mostly Cloudy 38 3.1 32 0 80 80 Calm 29.74 1007 10 16.0934 0 0
10:35 am 10:35 Mostly Cloudy 41 5.2 33 0.5 72 72 WSW 7 11 29.71 1006 10 16.0934 0 0
10:55 am 10:55 Cloudy 42 5.8 33 0.5 69 69 WSW 9 15 29.74 1007 10 16.0934 0 0
11:15 am 11:15 Mostly Cloudy 44 6.7 34 1 67 67 W 12 19 29.71 1006 10 16.0934 0 0
11:35 am 11:35 Cloudy 45 7 34 1.2 67 67 W 13 20 29.68 1005 10 16.0934 0 0
11:55 am 11:55 Mostly Cloudy 46 7.5 35 1.6 67 67 W 10 17 29.68 1005 10 16.0934 0 0
12:15 pm 12:15 Partly Cloudy 49 9.2 36 2.3 62 62 W 15 24 29.68 1005 10 16.0934 0 0
12:35 pm 12:35 Partly Cloudy 49 9.5 37 2.5 62 62 W 15 24 29.68 1005 10 16.0934 0 0
12:55 pm 12:55 Partly Cloudy 50 10.2 37 2.8 60 60 WNW 15 24 29.65 1004 10 16.0934 0 0
1:15 pm 13:15 Partly Cloudy 52 11.3 38 3.4 59 59 WNW 16 26 29.65 1004 10 16.0934 0 0
1:35 pm 13:35 Mostly Cloudy 53 11.5 38 3.5 58 58 WNW 17 28 29.65 1004 10 16.0934 0 0
1:55 pm 13:55 Mostly Cloudy 54 12.2 40 4.2 58 58 NW 15 24 29.65 1004 10 16.0934 0 0
2:15 pm 14:15 Partly Cloudy 54 12.4 40 4.2 58 58 WNW 15 24 29.65 1004 10 16.0934 0 0
2:35 pm 14:35 Partly Cloudy 55 12.5 40 4.6 59 59 WNW 15 24 29.65 1004 10 16.0934 0 0
2:55 pm 14:55 Partly Cloudy 53 11.8 40 4.6 62 62 NW 14 22 29.65 1004 10 16.0934 0 0
3:15 pm 15:15 Mostly Cloudy 55 12.8 41 5.1 60 60 NW 14 22 29.68 1005 10 16.0934 0 0
3:35 pm 15:35 Cloudy 55 12.9 41 4.8 58 58 NW 13 20 29.68 1005 10 16.0934 0 0
3:55 pm 15:55 Partly Cloudy 53 11.7 41 4.8 63 63 WNW 10 17 29.68 1005 10 16.0934 0 0
4:15 pm 16:15 Sunny 51 10.7 40 4.5 66 66 WNW 9 15 29.68 1005 10 16.0934 0 0
4:35 pm 16:35 Sunny 47 8.5 39 3.7 72 72 W 8 13 29.71 1006 10 16.0934 0 0
4:55 pm 16:55 Sunny 47 8.1 39 3.7 74 74 WNW 5 7 29.71 1006 10 16.0934 0 0
5:15 pm 17:15 Clear 45 7 38 3.2 77 77 W 10 17 29.71 1006 10 16.0934 0 0
5:35 pm 17:35 Clear 44 6.9 39 3.7 80 80 W 7 11 29.74 1007 10 16.0934 0 0
5:55 pm 17:55 Clear 43 6.2 38 3.2 81 81 Calm 29.74 1007 10 16.0934 0 0
6:15 pm 18:15 Clear 43 5.9 37 2.9 81 81 WNW 7 11 29.74 1007 10 16.0934 0 0
6:35 pm 18:35 Clear 40 4.2 36 2 86 86 WNW 8 13 29.74 1007 10 16.0934 0 0
6:55 pm 18:55 Clear 38 3.6 35 1.4 86 86 WNW 8 13 29.77 1008 10 16.0934 0 0
7:15 pm 19:15 Clear 38 3.2 34 1.3 88 88 NW 5 7 29.77 1008 10 16.0934 0 0
7:35 pm 19:35 Clear 38 3.5 35 1.7 88 88 NW 7 11 29.77 1008 10 16.0934 0 0
7:55 pm 19:55 Clear 37 2.5 33 0.8 89 89 WNW 7 11 29.8 1009 10 16.0934 0 0
8:15 pm 20:15 Clear 35 1.9 32 0.2 89 89 WNW 5 7 29.77 1008 10 16.0934 0 0
8:35 pm 20:35 Clear 36 2 33 0.5 90 90 NW 6 9 29.77 1008 10 16.0934 0 0
8:55 pm 20:55 Clear 34 1.2 32 0.1 92 92 W 7 11 29.77 1008 10 16.0934 0 0
9:15 pm 21:15 Clear 34 1.1 32 0 92 92 W 9 15 29.83 1010 10 16.0934 0 0
9:35 pm 21:35 Clear 33 0.8 32 0 94 94 WNW 6 9 29.83 1010 10 16.0934 0 0
9:55 pm 21:55 Clear 33 0.5 32 -0.1 96 96 W 5 7 29.83 1010 10 16.0934 0 0
10:15 pm 22:15 Clear 32 0.1 31 -0.6 95 95 W 5 7 29.83 1010 10 16.0934 0 0
10:35 pm 22:35 Clear 32 0 31 -0.7 95 95 W 5 7 29.83 1010 10 16.0934 0 0
10:55 pm 22:55 Clear 33 0.6 32 -0.1 95 95 W 5 7 29.83 1010 10 16.0934 0 0
11:15 pm 23:15 Clear 32 0.2 31 -0.5 95 95 W 3 6 29.83 1010 10 16.0934 0 0
11:35 pm 23:35 Clear 33 0.5 32 -0.2 95 95 W 5 7 29.83 1010 10 16.0934 0 0
11:55 pm 23:55 Partly Cloudy 33 0.5 32 -0.2 95 95 W 3 6 29.83 1010 10 16.0934 0 0

Powered by AerisWeather